Location: El Manguito
(10.2358°N, 67.3634°W)
Time: 15:10:40
(UTC+00:00)

OAO 3 Rocket - Pass Details

Date: 10 September 2024
Orbit: 619 x 669 km, 35.0° (Epoch: 11 October)

Event Time Altitude Azimuth Distance (km) Brightness Sun altitude
Rises 23:32:18 0° 248° (WSW) 2,962 7.7 -15.4°
Reaches altitude 10° 23:34:47 10° 256° (WSW) 2,042 6.8 -16.0°
Maximum altitude 23:39:17 41° 326° (NNW) 919 4.2 -17.1°
Enters shadow 23:43:21 12° 36° (NE) 1,884 5.3 -18.1°
